Flag for U.S.A. Weather past 2 weeks in Palm Springs, California, U.S.A.

Now
89 °F

Passing clouds.


Feels Like: 94 °F
Forecast: 83 / 104 °F
Wind: 8 mph from East

Location: Palm Springs Regional Airport

Current Time: Jul 1, 2015 at 10:33:38 PM

Latest Report: Jul 1, 2015 at 9:53 PM


Visibility: 10 mi

Pressure: 29.86 "Hg

Humidity: 52%

Dew point: 69 °F

Location of Palm SpringsLocation

Historic Weather in Palm Springs — Graph

°F

Palm Springs temperature yesterday

Maximum temperature yesterday: 106 °F (at 3:53 PM)
Minimum temperature yesterday: 88 °F (at 3:53 AM)
Average temperature yesterday: 96 °F

Past Weeks' High & Low Weather Summary

 TemperatureHumidityPressure
High115 °F (Jun 18, 2:53 PM)67% (Jun 27, 6:53 AM)29.96 "Hg (Jun 27, 6:53 AM)
Low78 °F (Jun 23, 5:53 AM)3% (Jun 18, 4:53 PM)29.64 "Hg (Jun 19, 5:53 PM)
Average96 °F23%29.78 "Hg
* Reported Jun 17 3:53 AM — Jul 1 9:53 PM, Palm Springs, Weather by CustomWeather, © 2015

Note: Actual official high and low records may vary slightly from our data, if they occured in-between our weather recording intervals... More about our weather records

Advertising

Palm Springs weather history for previous 24 hours

 ConditionsComfort  
Time TempWeatherWind HumidityBarometerVisibility
9:53 PM
Wed, Jul 1
89 °FPassing clouds.8 mph52%29.86 "Hg10 mi
8:53 PM92 °FPartly sunny.8 mph43%29.84 "Hg10 mi
7:53 PM94 °FPartly sunny.9 mph37%29.83 "Hg10 mi
6:53 PM96 °FSunny.9 mph36%29.82 "Hg10 mi
5:53 PM98 °FPartly sunny.No wind32%29.81 "Hg10 mi
4:53 PM96 °FBroken clouds.3 mph32%29.82 "Hg10 mi
3:53 PM98 °FSunny.No wind32%29.83 "Hg10 mi
2:53 PM93 °FBroken clouds.5 mph41%29.86 "Hg10 mi
1:53 PM93 °FBroken clouds.8 mph42%29.88 "Hg10 mi
12:53 PM94 °FBroken clouds.7 mph37%29.87 "Hg10 mi
11:53 AM94 °FSunny.9 mph35%29.87 "Hg10 mi
10:53 AM88 °FSunny.9 mph52%29.92 "Hg10 mi
9:53 AM86 °FMostly cloudy.14 mph57%29.91 "Hg10 mi
8:53 AM86 °FLight rain. Sunny.8 mph59%29.91 "Hg10 mi
7:53 AM86 °FSunny.9 mph57%29.92 "Hg10 mi
6:53 AM86 °FSunny.9 mph55%29.88 "Hg10 mi
5:53 AM87 °FClear.No wind50%29.86 "Hg10 mi
4:53 AM87 °FClear.No wind51%29.84 "Hg10 mi
3:53 AM88 °FClear.9 mph48%29.86 "Hg10 mi
2:53 AM89 °FClear.8 mph42%29.86 "Hg10 mi
1:53 AM92 °FLight rain. Passing clouds.7 mph33%29.81 "Hg10 mi
12:53 AM94 °FClear.3 mph28%29.74 "Hg10 mi
11:53 PM
Tue, Jun 30
91 °FClear.3 mph34%29.76 "Hg10 mi
10:53 PM94 °FClear.5 mph29%29.75 "Hg10 mi
Weather by CustomWeather, © 2015

See weather overviewHow to use our weather pages